SCP
0 0 0 0 0 0 0 0 0 0 0 0 0 0 0 0 0 0 0 0 0 0 0 0 0 0 0 0 0 0 0 0 0 0 0 0 0 0 0 0 0 1 2 1 0
0 0 0 0 0 0 0 0 0 0 0 0 0 0 0 0 0 0 0 0 0 0 0 0 0 0 0 0 0 0 0 0 0 0 0 0 0 0 0 0 0 1 1 0 0
0 0 0 0 0 0 0 0 0 0 0 0 0 0 0 0 0 0 0 0 0 0 0 0 0 0 0 0 0 0 0 0 0 0 0 0 0 0 0 0 0 0 0 0 1
0 0 0 0 0 0 0 0 0 0 0 0 0 0 0 0 0 0 0 0 0 0 0 0 0 0 0 0 0 0 0 0 0 0 0 0 0 0 0 0 0 1 0 0 0
0 0 0 0 0 0 0 0 0 0 0 0 0 0 0 0 0 0 0 0 0 0 0 0 0 0 0 0 0 0 0 0 0 0 0 0 0 0 0 0 0 0 0 0 0
0 0 0 0 0 0 0 0 0 0 0 0 0 0 0 0 0 0 0 0 0 0 0 0 0 0 0 0 0 0 0 0 0 0 0 0 0 0 0 0 0 0 0 0 0
0 0 0 0 0 0 0 0 0 0 0 0 0 0 0 0 0 0 0 0 0 0 0 0 0 0 0 0 0 0 0 0 0 0 0 0 0 0 0 0 0 0 0 0 0
0 0 0 0 0 0 0 0 0 0 0 0 0 0 0 0 0 0 0 0 0 0 0 0 0 0 0 0 0 0 0 0 0 0 0 0 0 0 0 0 0 0 0 0 0
0 0 0 0 0 0 0 0 0 0 0 0 0 0 0 0 0 0 0 0 0 0 0 0 0 0 0 0 0 0 0 0 0 0 0 0 0 0 0 0 0 0 0 0 0
0 0 0 0 0 0 0 0 0 0 0 0 0 0 0 0 0 0 0 -0 0 0 0 0 0 0 0 0 0 0 0 0 0 0 0 0 0 0 0 0 0 0 0 0 0
0 0 0 0 0 0 0 0 0 0 0 0 0 0 0 0 0 0 0 -0 0 0 0 0 0 0 0 0 0 0 0 0 0 0 0 0 0 0 0 0 0 0 0 0 0
0 0 0 0 0 0 0 0 0 0 0 0 0 -0 0 0 0 0 -0 0 0 0 0 0 0 0 0 0 0 0 0 0 0 0 0 0 0 0 0 0 0 0 0 0 0
0 0 0 0 0 0 0 0 0 0 0 0 0 0 -0 0 0 0 0 0 0 0 0 0 0 0 0 0 0 0 0 0 0 0 0 0 0 0 0 0 0 0 0 0 0
0 0 0 0 0 0 0 0 0 0 0 0 0 0 0 0 -0 -0 -0 0 0 0 0 0 0 0 0 0 0 0 0 0 0 0 0 0 0 0 0 0 0 0 0 0 0
0 0 0 0 0 0 0 0 0 0 0 0 0 0 0 -0 0 -0 0 0 0 0 0 0 0 0 0 0 0 0 0 0 0 0 0 0 0 0 0 0 0 0 0 0 0
0 0 0 0 0 0 0 0 0 0 0 0 0 0 0 0 0 -0 -0 0 0 0 0 0 0 0 0 0 0 0 0 0 0 0 0 0 0 0 0 0 0 0 0 0 0
0 0 0 0 0 0 0 0 0 0 0 0 0 0 0 0 0 -0 0 0 0 0 0 0 0 0 0 0 0 0 0 0 0 0 0 0 0 0 0 0 0 0 0 0 0
0 0 0 0 0 0 0 0 0 0 0 0 0 0 0 0 -0 -0 0 0 0 0 0 0 0 0 0 0 0 0 0 0 0 0 0 0 0 0 0 0 0 0 0 0 0
0 0 0 0 0 0 0 0 0 0 0 0 0 0 0 0 0 0 0 0 0 0 0 0 0 0 0 0 0 0 0 0 0 0 0 0 0 0 0 0 0 0 0 0 0
0 0 0 0 0 0 0 0 0 0 0 0 0 0 0 0 0 0 0 0 0 0 0 0 0 0 0 0 0 0 0 0 0 0 0 0 0 0 0 0 0 0 0 0 0
0 0 0 0 0 0 0 0 0 0 0 0 0 0 0 0 0 0 0 -0 0 0 0 0 0 0 0 0 0 0 0 0 0 0 0 0 0 0 0 0 0 0 0 0 0
0 0 0 0 -0 0 0 0 0 0 0 0 0 0 0 -0 0 -0 0 0 -0 0 0 0 0 0 0 0 0 0 0 0 0 0 0 0 0 0 0 0 0 0 0 0 0
0 0 0 -0 -0 0 0 0 0 0 0 0 0 0 0 0 0 -0 0 0 0 0 0 0 0 0 0 0 0 0 0 0 0 0 0 0 0 0 0 0 0 0 0 -0 0
0 0 0 -0 -0 -0 0 0 0 0 0 0 0 0 0 0 0 0 0 0 0 0 0 0 0 0 0 0 0 0 0 0 0 0 0 0 0 0 0 0 0 0 0 0 0
0 0 0 0 -0 0 -0 0 0 0 0 0 0 -0 0 0 0 0 -0 0 0 0 0 0 0 0 0 0 0 0 0 0 0 0 0 0 0 0 0 0 0 0 -0 -0 0
0 0 0 -0 0 0 -0 0 0 0 0 0 -0 -0 0 0 0 0 -0 0 0 0 0 0 0 0 0 0 0 0 0 0 0 0 0 0 0 0 0 0 -0 0 -0 0 0
0 0 0 -0 -0 -0 0 0 0 0 0 0 -0 0 0 0 0 0 0 0 0 0 0 0 0 0 0 0 0 0 0 0 0 0 0 0 0 0 0 0 -0 -0 0 0 0
Wind_Speed_500mb
39 39 40 41 38 34 34 37 41 45 43 42 38 34 31 35 38 42 53 53 27 27 33 19 30 39 36 20 21 22 16 31 38 35 22 14 18 9 3 2 7 7 4 8 14
44 44 44 44 44 46 45 43 42 40 40 43 41 36 27 34 41 53 53 44 41 37 40 28 27 40 26 23 19 24 28 33 10 14 25 17 6 3 3 5 6 9 12 15 18
50 48 46 45 44 42 42 43 44 44 43 39 41 37 30 27 34 11 2 15 6 36 51 38 29 31 34 21 24 23 34 20 17 21 17 18 22 4 3 5 6 12 20 19 20
54 55 53 53 50 45 43 45 43 42 45 41 38 37 33 21 14 34 17 20 10 21 48 49 35 25 24 29 27 19 31 30 25 26 25 10 8 19 15 9 8 19 22 22 24
53 53 51 50 50 50 50 48 45 41 39 42 41 35 34 24 45 22 33 34 23 13 41 44 44 35 32 31 30 33 13 37 32 22 22 17 23 12 9 19 18 27 24 24 26
52 53 53 53 53 52 49 50 46 43 43 39 39 36 37 39 62 50 52 52 45 16 24 38 27 36 31 21 44 35 35 24 41 25 19 25 14 8 19 18 20 33 29 26 30
54 54 55 56 56 58 57 53 50 52 48 40 34 28 42 67 37 14 25 35 16 15 19 38 20 35 21 15 21 17 31 35 22 44 24 15 25 21 17 27 24 26 28 27 26
59 59 61 61 60 60 60 60 60 61 51 46 34 27 41 31 58 66 62 61 56 22 19 38 25 22 14 18 21 26 15 24 36 24 19 35 40 30 30 25 29 26 24 27 29
63 65 65 63 63 59 59 59 62 67 56 43 32 22 28 24 20 16 37 55 39 42 24 12 14 21 12 27 19 35 30 35 16 48 15 32 19 25 42 42 32 28 27 25 24
67 69 67 63 64 57 58 62 58 18 13 15 19 17 28 19 6 12 13 38 29 38 24 17 18 21 24 34 42 34 40 32 28 19 48 33 18 17 39 50 41 33 29 25 26
71 68 62 64 58 49 50 50 12 3 6 15 21 15 5 22 5 4 5 43 24 41 27 34 23 44 48 33 13 25 35 27 33 17 35 36 29 20 32 35 40 31 32 33 36
73 61 63 61 41 34 35 23 11 15 21 33 50 48 44 17 7 19 21 14 23 32 33 19 41 33 28 31 18 27 33 30 19 25 20 32 36 33 27 28 38 41 42 43 42
69 63 64 49 31 30 35 19 15 14 11 21 29 34 47 36 44 44 31 16 22 33 45 42 23 32 36 38 32 15 31 29 26 29 8 24 23 37 29 28 27 41 39 41 42
69 68 52 35 26 34 18 16 6 9 6 8 9 10 18 19 15 55 49 34 15 40 43 32 24 44 40 44 40 18 14 26 26 34 13 15 11 19 28 27 29 37 44 49 47
72 60 33 29 25 24 23 12 10 1 10 13 11 14 12 16 16 16 34 43 28 21 33 38 45 44 47 51 44 24 21 14 23 26 17 18 8 8 9 25 29 35 52 57 54
79 43 27 31 28 29 10 5 6 5 8 6 14 15 15 21 10 9 42 25 17 21 39 34 43 34 24 36 43 21 22 9 13 11 15 22 17 13 15 21 19 30 44 51 55
71 19 33 32 27 33 10 6 5 6 13 6 7 7 22 17 21 15 27 32 21 20 37 33 43 33 36 39 33 33 33 14 13 14 8 19 16 6 17 14 18 17 31 40 43
44 14 47 38 31 31 8 2 10 9 14 11 13 31 16 9 18 35 20 30 40 21 40 35 21 42 41 51 33 48 43 14 17 16 16 15 16 7 11 7 14 24 35 37 41
30 11 44 48 36 24 4 4 7 6 10 13 21 9 7 3 5 7 25 43 38 27 32 27 19 46 52 43 41 39 34 10 14 9 18 10 5 8 14 15 13 25 16 13 26
24 3 40 54 38 2 2 9 8 10 8 7 8 6 7 8 6 10 19 36 29 31 23 22 29 39 41 36 36 40 27 13 5 18 15 13 11 12 9 14 22 17 12 15 12
20 4 34 50 28 6 6 10 17 27 16 7 6 7 8 4 10 9 24 30 23 34 28 14 29 28 43 31 48 36 29 4 9 2 9 14 8 2 6 15 20 6 21 25 30
19 3 27 46 9 8 10 30 26 25 19 1 8 10 3 11 5 7 7 10 22 17 18 6 23 38 49 14 29 35 33 8 9 9 6 7 8 3 11 14 4 19 31 43 48
25 12 19 47 10 18 17 18 23 31 25 3 4 7 7 4 1 8 3 18 58 27 6 17 17 25 26 17 29 33 36 18 11 5 5 7 8 1 1 8 18 30 40 58 62
16 10 14 20 17 21 19 14 35 38 15 25 9 6 7 4 1 5 4 21 45 18 18 18 15 32 18 33 33 28 43 32 21 6 11 6 15 11 9 17 24 37 45 60 58
25 7 14 14 18 29 24 18 32 22 13 25 12 29 6 6 3 2 31 20 10 14 5 6 18 16 18 34 37 25 44 28 22 19 15 15 15 16 14 22 35 45 51 51 55
17 15 17 19 31 26 23 14 28 40 13 23 26 33 15 7 13 13 38 14 10 19 25 2 9 14 23 40 42 26 36 40 31 18 8 26 15 12 17 32 44 48 54 53 52
35 34 13 22 20 19 22 24 27 40 19 28 35 14 11 14 13 5 4 7 11 9 7 4 10 17 13 31 34 22 9 19 17 23 17 17 14 27 25 30 44 50 56 62 64
Wind_Direction_500mb
328 319 310 305 302 299 299 300 305 310 311 313 313 307 300 304 296 282 266 261 256 235 247 224 205 197 183 190 181 183 215 220 216 213 210 184 189 178 187 79 73 19 43 135 167
336 329 321 315 307 299 293 291 290 292 296 305 309 314 301 300 296 285 285 264 243 226 226 213 200 188 182 191 188 195 218 217 222 198 211 195 207 110 193 63 117 97 105 135 154
343 339 333 327 317 313 309 298 287 285 286 289 297 304 312 304 304 224 13 97 225 224 230 220 192 179 192 181 193 200 224 197 202 192 208 203 219 278 263 234 222 201 158 156 157
343 341 338 335 332 326 319 312 303 290 280 275 274 288 296 290 271 176 155 129 145 242 217 206 195 186 191 193 185 209 219 206 207 204 213 202 200 231 241 233 194 164 157 161 166
341 341 334 330 328 324 320 316 311 304 295 280 269 268 276 236 246 202 231 260 300 14 202 194 192 191 193 196 184 210 187 208 202 184 194 216 231 221 200 156 156 158 154 159 175
344 342 339 334 330 324 320 316 312 304 297 288 282 258 270 246 271 266 242 258 283 265 218 201 208 195 197 195 197 196 206 194 214 207 215 219 228 219 200 170 156 168 168 165 165
343 343 337 333 329 326 323 318 315 309 304 295 287 275 261 245 253 267 255 253 264 215 236 200 203 196 157 167 193 160 189 215 201 213 217 208 234 211 216 179 175 181 181 182 181
344 341 335 332 327 323 320 315 311 307 302 290 285 268 256 266 259 258 257 257 254 222 209 195 190 192 198 140 145 176 178 193 209 176 196 194 238 199 209 184 187 182 179 186 187
344 338 333 328 326 328 323 316 308 306 291 271 254 233 269 268 263 290 241 237 241 214 217 192 210 199 167 172 151 192 202 201 174 202 163 198 227 208 202 204 193 194 193 193 195
343 336 331 332 330 326 319 310 317 322 35 132 179 188 249 236 212 305 290 200 192 198 223 209 193 192 200 189 202 185 194 194 190 168 202 198 217 179 188 192 202 193 200 209 215
342 337 333 333 328 329 327 339 4 311 284 217 210 225 252 201 153 132 126 149 153 177 192 190 186 203 194 201 243 166 185 165 197 150 179 203 199 161 180 195 195 210 214 218 223
343 338 335 329 335 344 334 341 300 290 296 262 249 245 247 238 289 117 124 147 173 186 186 185 213 198 180 189 180 177 171 186 169 178 203 190 206 209 202 204 214 221 223 224 225
344 341 335 332 336 341 340 339 328 296 275 287 238 237 237 242 254 245 222 199 183 177 198 199 197 176 178 181 192 173 181 161 152 168 149 155 196 219 230 234 225 225 224 219 222
346 342 336 342 340 332 333 325 348 330 292 250 209 236 176 211 235 226 203 184 174 194 196 221 203 175 179 188 190 169 188 179 137 154 176 210 197 213 217 209 217 220 222 233 234
346 341 343 337 334 335 323 317 302 64 314 137 150 152 189 180 328 178 189 189 204 172 182 190 182 186 182 185 182 181 166 140 171 171 156 169 205 154 180 220 224 221 222 224 223
346 342 359 348 331 329 285 242 244 218 252 237 155 185 178 203 201 182 178 206 216 189 199 193 185 183 183 176 180 171 151 72 100 155 203 172 199 184 174 205 223 230 230 229 230
349 8 9 359 340 331 260 120 270 240 3 262 251 269 248 202 192 208 163 189 189 174 179 186 176 181 182 158 185 174 162 140 164 186 178 172 188 171 192 225 241 256 240 227 232
358 71 6 4 347 337 209 103 242 224 241 258 274 277 266 221 204 199 197 191 214 217 166 169 182 172 179 169 183 185 177 169 164 178 143 160 200 140 165 229 243 267 272 252 244
6 65 8 1 352 342 164 276 262 274 293 299 297 263 314 40 145 104 167 179 194 202 170 181 161 175 178 176 151 181 198 145 107 101 144 164 163 234 223 245 287 314 295 226 206
12 62 7 359 347 82 291 284 265 219 287 255 286 340 354 54 79 106 151 184 188 205 226 195 134 181 172 178 187 182 152 170 149 152 154 173 161 126 207 316 336 352 21 70 114
15 13 356 359 342 315 345 304 295 306 299 216 304 314 342 66 127 109 176 166 173 210 223 209 151 159 162 184 175 170 192 138 105 2 136 143 162 110 309 308 314 13 98 103 104
3 356 350 0 2 351 336 313 298 313 345 153 291 280 312 354 71 99 143 252 178 215 214 212 157 158 169 189 181 179 187 176 137 152 63 90 127 71 291 302 217 109 103 100 97
343 313 357 24 16 353 329 320 333 329 335 274 243 252 343 342 103 110 198 198 177 199 182 165 154 138 167 133 172 181 179 187 107 132 81 102 146 106 358 117 115 118 112 106 106
6 353 343 24 4 335 328 337 342 336 334 337 349 219 266 246 72 136 243 157 191 227 20 32 168 165 173 167 155 170 170 177 193 159 138 101 145 175 127 130 125 116 118 118 116
19 15 349 322 344 329 345 328 332 346 331 342 336 356 346 331 40 34 130 130 157 217 258 259 163 184 145 138 163 146 174 176 165 156 190 177 164 158 152 147 132 125 127 124 122
23 355 326 296 311 330 355 330 331 333 316 329 340 338 27 38 28 54 125 121 203 252 259 280 130 134 140 147 158 145 167 184 191 177 106 140 146 153 151 141 139 138 136 131 127
1 357 309 315 324 342 348 338 317 335 305 325 325 326 23 3 337 319 9 232 281 244 153 33 146 131 129 151 146 161 159 190 172 190 156 169 164 163 153 156 150 146 144 138 128
Wind_Speed_850mb
39 39 40 41 38 34 34 37 41 45 43 42 38 34 31 35 38 42 53 53 27 27 33 19 30 39 36 20 21 22 16 31 38 35 22 14 18 9 3 2 7 7 4 8 14
44 44 44 44 44 46 45 43 42 40 40 43 41 36 27 34 41 53 53 44 41 37 40 28 27 40 26 23 19 24 28 33 10 14 25 17 6 3 3 5 6 9 12 15 18
50 48 46 45 44 42 42 43 44 44 43 39 41 37 30 27 34 11 2 15 6 36 51 38 29 31 34 21 24 23 34 20 17 21 17 18 22 4 3 5 6 12 20 19 20
54 55 53 53 50 45 43 45 43 42 45 41 38 37 33 21 14 34 17 20 10 21 48 49 35 25 24 29 27 19 31 30 25 26 25 10 8 19 15 9 8 19 22 22 24
53 53 51 50 50 50 50 48 45 41 39 42 41 35 34 24 45 22 33 34 23 13 41 44 44 35 32 31 30 33 13 37 32 22 22 17 23 12 9 19 18 27 24 24 26
52 53 53 53 53 52 49 50 46 43 43 39 39 36 37 39 62 50 52 52 45 16 24 38 27 36 31 21 44 35 35 24 41 25 19 25 14 8 19 18 20 33 29 26 30
54 54 55 56 56 58 57 53 50 52 48 40 34 28 42 67 37 14 25 35 16 15 19 38 20 35 21 15 21 17 31 35 22 44 24 15 25 21 17 27 24 26 28 27 26
59 59 61 61 60 60 60 60 60 61 51 46 34 27 41 31 58 66 62 61 56 22 19 38 25 22 14 18 21 26 15 24 36 24 19 35 40 30 30 25 29 26 24 27 29
63 65 65 63 63 59 59 59 62 67 56 43 32 22 28 24 20 16 37 55 39 42 24 12 14 21 12 27 19 35 30 35 16 48 15 32 19 25 42 42 32 28 27 25 24
67 69 67 63 64 57 58 62 58 18 13 15 19 17 28 19 6 12 13 38 29 38 24 17 18 21 24 34 42 34 40 32 28 19 48 33 18 17 39 50 41 33 29 25 26
71 68 62 64 58 49 50 50 12 3 6 15 21 15 5 22 5 4 5 43 24 41 27 34 23 44 48 33 13 25 35 27 33 17 35 36 29 20 32 35 40 31 32 33 36
73 61 63 61 41 34 35 23 11 15 21 33 50 48 44 17 7 19 21 14 23 32 33 19 41 33 28 31 18 27 33 30 19 25 20 32 36 33 27 28 38 41 42 43 42
69 63 64 49 31 30 35 19 15 14 11 21 29 34 47 36 44 44 31 16 22 33 45 42 23 32 36 38 32 15 31 29 26 29 8 24 23 37 29 28 27 41 39 41 42
69 68 52 35 26 34 18 16 6 9 6 8 9 10 18 19 15 55 49 34 15 40 43 32 24 44 40 44 40 18 14 26 26 34 13 15 11 19 28 27 29 37 44 49 47
72 60 33 29 25 24 23 12 10 1 10 13 11 14 12 16 16 16 34 43 28 21 33 38 45 44 47 51 44 24 21 14 23 26 17 18 8 8 9 25 29 35 52 57 54
79 43 27 31 28 29 10 5 6 5 8 6 14 15 15 21 10 9 42 25 17 21 39 34 43 34 24 36 43 21 22 9 13 11 15 22 17 13 15 21 19 30 44 51 55
71 19 33 32 27 33 10 6 5 6 13 6 7 7 22 17 21 15 27 32 21 20 37 33 43 33 36 39 33 33 33 14 13 14 8 19 16 6 17 14 18 17 31 40 43
44 14 47 38 31 31 8 2 10 9 14 11 13 31 16 9 18 35 20 30 40 21 40 35 21 42 41 51 33 48 43 14 17 16 16 15 16 7 11 7 14 24 35 37 41
30 11 44 48 36 24 4 4 7 6 10 13 21 9 7 3 5 7 25 43 38 27 32 27 19 46 52 43 41 39 34 10 14 9 18 10 5 8 14 15 13 25 16 13 26
24 3 40 54 38 2 2 9 8 10 8 7 8 6 7 8 6 10 19 36 29 31 23 22 29 39 41 36 36 40 27 13 5 18 15 13 11 12 9 14 22 17 12 15 12
20 4 34 50 28 6 6 10 17 27 16 7 6 7 8 4 10 9 24 30 23 34 28 14 29 28 43 31 48 36 29 4 9 2 9 14 8 2 6 15 20 6 21 25 30
19 3 27 46 9 8 10 30 26 25 19 1 8 10 3 11 5 7 7 10 22 17 18 6 23 38 49 14 29 35 33 8 9 9 6 7 8 3 11 14 4 19 31 43 48
25 12 19 47 10 18 17 18 23 31 25 3 4 7 7 4 1 8 3 18 58 27 6 17 17 25 26 17 29 33 36 18 11 5 5 7 8 1 1 8 18 30 40 58 62
16 10 14 20 17 21 19 14 35 38 15 25 9 6 7 4 1 5 4 21 45 18 18 18 15 32 18 33 33 28 43 32 21 6 11 6 15 11 9 17 24 37 45 60 58
25 7 14 14 18 29 24 18 32 22 13 25 12 29 6 6 3 2 31 20 10 14 5 6 18 16 18 34 37 25 44 28 22 19 15 15 15 16 14 22 35 45 51 51 55
17 15 17 19 31 26 23 14 28 40 13 23 26 33 15 7 13 13 38 14 10 19 25 2 9 14 23 40 42 26 36 40 31 18 8 26 15 12 17 32 44 48 54 53 52
35 34 13 22 20 19 22 24 27 40 19 28 35 14 11 14 13 5 4 7 11 9 7 4 10 17 13 31 34 22 9 19 17 23 17 17 14 27 25 30 44 50 56 62 64
Wind_Direction_850mb
328 319 310 305 302 299 299 300 305 310 311 313 313 307 300 304 296 282 266 261 256 235 247 224 205 197 183 190 181 183 215 220 216 213 210 184 189 178 187 79 73 19 43 135 167
336 329 321 315 307 299 293 291 290 292 296 305 309 314 301 300 296 285 285 264 243 226 226 213 200 188 182 191 188 195 218 217 222 198 211 195 207 110 193 63 117 97 105 135 154
343 339 333 327 317 313 309 298 287 285 286 289 297 304 312 304 304 224 13 97 225 224 230 220 192 179 192 181 193 200 224 197 202 192 208 203 219 278 263 234 222 201 158 156 157
343 341 338 335 332 326 319 312 303 290 280 275 274 288 296 290 271 176 155 129 145 242 217 206 195 186 191 193 185 209 219 206 207 204 213 202 200 231 241 233 194 164 157 161 166
341 341 334 330 328 324 320 316 311 304 295 280 269 268 276 236 246 202 231 260 300 14 202 194 192 191 193 196 184 210 187 208 202 184 194 216 231 221 200 156 156 158 154 159 175
344 342 339 334 330 324 320 316 312 304 297 288 282 258 270 246 271 266 242 258 283 265 218 201 208 195 197 195 197 196 206 194 214 207 215 219 228 219 200 170 156 168 168 165 165
343 343 337 333 329 326 323 318 315 309 304 295 287 275 261 245 253 267 255 253 264 215 236 200 203 196 157 167 193 160 189 215 201 213 217 208 234 211 216 179 175 181 181 182 181
344 341 335 332 327 323 320 315 311 307 302 290 285 268 256 266 259 258 257 257 254 222 209 195 190 192 198 140 145 176 178 193 209 176 196 194 238 199 209 184 187 182 179 186 187
344 338 333 328 326 328 323 316 308 306 291 271 254 233 269 268 263 290 241 237 241 214 217 192 210 199 167 172 151 192 202 201 174 202 163 198 227 208 202 204 193 194 193 193 195
343 336 331 332 330 326 319 310 317 322 35 132 179 188 249 236 212 305 290 200 192 198 223 209 193 192 200 189 202 185 194 194 190 168 202 198 217 179 188 192 202 193 200 209 215
342 337 333 333 328 329 327 339 4 311 284 217 210 225 252 201 153 132 126 149 153 177 192 190 186 203 194 201 243 166 185 165 197 150 179 203 199 161 180 195 195 210 214 218 223
343 338 335 329 335 344 334 341 300 290 296 262 249 245 247 238 289 117 124 147 173 186 186 185 213 198 180 189 180 177 171 186 169 178 203 190 206 209 202 204 214 221 223 224 225
344 341 335 332 336 341 340 339 328 296 275 287 238 237 237 242 254 245 222 199 183 177 198 199 197 176 178 181 192 173 181 161 152 168 149 155 196 219 230 234 225 225 224 219 222
346 342 336 342 340 332 333 325 348 330 292 250 209 236 176 211 235 226 203 184 174 194 196 221 203 175 179 188 190 169 188 179 137 154 176 210 197 213 217 209 217 220 222 233 234
346 341 343 337 334 335 323 317 302 64 314 137 150 152 189 180 328 178 189 189 204 172 182 190 182 186 182 185 182 181 166 140 171 171 156 169 205 154 180 220 224 221 222 224 223
346 342 359 348 331 329 285 242 244 218 252 237 155 185 178 203 201 182 178 206 216 189 199 193 185 183 183 176 180 171 151 72 100 155 203 172 199 184 174 205 223 230 230 229 230
349 8 9 359 340 331 260 120 270 240 3 262 251 269 248 202 192 208 163 189 189 174 179 186 176 181 182 158 185 174 162 140 164 186 178 172 188 171 192 225 241 256 240 227 232
358 71 6 4 347 337 209 103 242 224 241 258 274 277 266 221 204 199 197 191 214 217 166 169 182 172 179 169 183 185 177 169 164 178 143 160 200 140 165 229 243 267 272 252 244
6 65 8 1 352 342 164 276 262 274 293 299 297 263 314 40 145 104 167 179 194 202 170 181 161 175 178 176 151 181 198 145 107 101 144 164 163 234 223 245 287 314 295 226 206
12 62 7 359 347 82 291 284 265 219 287 255 286 340 354 54 79 106 151 184 188 205 226 195 134 181 172 178 187 182 152 170 149 152 154 173 161 126 207 316 336 352 21 70 114
15 13 356 359 342 315 345 304 295 306 299 216 304 314 342 66 127 109 176 166 173 210 223 209 151 159 162 184 175 170 192 138 105 2 136 143 162 110 309 308 314 13 98 103 104
3 356 350 0 2 351 336 313 298 313 345 153 291 280 312 354 71 99 143 252 178 215 214 212 157 158 169 189 181 179 187 176 137 152 63 90 127 71 291 302 217 109 103 100 97
343 313 357 24 16 353 329 320 333 329 335 274 243 252 343 342 103 110 198 198 177 199 182 165 154 138 167 133 172 181 179 187 107 132 81 102 146 106 358 117 115 118 112 106 106
6 353 343 24 4 335 328 337 342 336 334 337 349 219 266 246 72 136 243 157 191 227 20 32 168 165 173 167 155 170 170 177 193 159 138 101 145 175 127 130 125 116 118 118 116
19 15 349 322 344 329 345 328 332 346 331 342 336 356 346 331 40 34 130 130 157 217 258 259 163 184 145 138 163 146 174 176 165 156 190 177 164 158 152 147 132 125 127 124 122
23 355 326 296 311 330 355 330 331 333 316 329 340 338 27 38 28 54 125 121 203 252 259 280 130 134 140 147 158 145 167 184 191 177 106 140 146 153 151 141 139 138 136 131 127
1 357 309 315 324 342 348 338 317 335 305 325 325 326 23 3 337 319 9 232 281 244 153 33 146 131 129 151 146 161 159 190 172 190 156 169 164 163 153 156 150 146 144 138 128